Location: Anasagaram
(16.7900°N, 80.2747°E)
Time: 06:05:54
(UTC+00:00)

Daily predictions for brighter satellites

Satellite Brightness Start Highest point End
(mag) Time Altitude Azimuth Time Altitude Azimuth Time Altitude Azimuth
Ariane H10+ 3.4 13:22:56 10° SW 13:27:19 31° SSE 13:35:26 10° ESE
BREEZE-M DEB (TANK) 3.3 13:29:46 10° NW 13:39:58 78° SW 13:43:16 10° SE
Tiangong -0.6 13:43:26 10° WSW 13:46:30 41° NW 13:49:36 10° NE
Centaur AC-119 3.0 13:44:56 10° NNW 13:46:45 23° NNE 13:49:31 10° E
SL-24 DEB 4.5 13:42:13 10° S 13:46:45 71° W 13:51:15 10° N
ATLAS 5 CENTAUR R/B 3.6 13:43:04 10° SW 13:49:46 64° SSE 14:20:52 10° ENE
Cosmos 292 Rocket 3.7 13:53:21 10° S 13:58:08 83° ESE 14:02:54 10° NNE
Cosmos 1656 Rocket 3.7 13:53:30 10° S 13:58:58 57° ESE 14:04:23 10° NNE
ATLAS 3B R/B 3.0 13:51:42 10° NNW 13:59:17 78° WSW 14:06:18 10° SSE
Resurs 01 Rocket 1.7 14:01:49 10° SSE 14:06:06 55° ENE 14:10:22 10° N
Ariane 42P Rocket 4.3 14:04:36 10° SW 14:06:32 12° SSW 14:08:09 10° SSE
Ariane 3 Deb 4.3 14:06:36 10° SW 14:09:26 21° S 14:12:01 16° SE
Meteor 1-24 Rocket 4.0 14:07:32 10° SSW 14:13:15 73° W 14:18:46 10° N
GPS 2-17 Rocket1 2.9 14:11:44 10° W 14:15:54 64° SSW 14:18:12 25° ESE
Cosmos 1814 Rocket 4.2 14:14:11 10° N 14:19:13 49° ENE 14:22:25 21° SE
Cosmos 1072 Rocket 4.5 14:16:59 10° N 14:23:10 70° E 14:29:27 10° S
USA 186 3.9 14:25:28 11° NE 14:25:28 11° NE 14:25:43 10° NE
Cosmos 1908 Rocket 3.5 14:20:21 10° N 14:24:45 69° E 14:27:56 18° SSE
Cosmos 2369 Rocket 2.3 14:20:44 10° S 14:26:14 52° ESE 14:31:45 10° NNE
Cosmos 1503 Rocket 4.3 14:22:37 10° S 14:27:29 42° ESE 14:32:19 10° NNE
OAO 2 Rocket 3.1 14:22:32 10° SW 14:27:32 84° SE 14:32:26 10° ENE
SL-08 R/B 3.7 14:24:16 10° N 14:28:51 63° WNW 14:33:33 10° SSW
Cosmos 2082 Rocket 3.2 14:24:36 10° NNE 14:29:24 27° ENE 14:30:52 24° E
Cosmos 1833 Rocket 3.8 14:24:50 10° NW 14:30:04 42° WSW 14:35:19 10° S
Hubble Space Telescope 0.5 14:27:33 10° WSW 14:31:21 82° NNW 14:33:29 25° ENE
Meteosat 1 Rocket2 2.8 14:29:08 10° WNW 14:32:55 89° SSW 14:34:40 36° ESE
SWIFT 1.7 14:29:58 10° WSW 14:33:32 73° SSE 14:34:19 50° E
CZ-4C R/B 3.3 14:38:17 15° NE 14:38:17 15° NE 14:39:08 10° NE
ATLAS 2A CENTAUR R/B 4.3 14:18:55 10° WNW 14:38:19 40° SW 14:42:13 20° SSE
CZ-4 R/B 1.0 14:38:28 45° SSE 14:39:28 77° ENE 14:43:08 10° N
Delta 7925 Rocket 3.7 14:38:54 10° W 14:43:26 56° NNW 14:47:00 18° ENE
PAYLOAD B 4.3 14:43:08 35° SE 14:45:19 57° ENE 14:50:42 10° N
Cosmos 2263 4.2 14:41:21 10° S 14:46:57 59° ESE 14:52:29 10° NNE
USA 267 3.2 14:43:24 28° SE 14:47:11 84° SW 14:53:45 10° NW
CZ-2C R/B 2.3 14:50:16 78° WNW 14:50:16 78° WNW 14:53:23 10° NNW
Cosmos 1464 Rocket 4.2 14:46:11 10° N 14:52:15 68° W 14:57:45 13° S
NATO 3D Rocket 4.4 14:48:17 10° WNW 14:53:59 61° N 14:58:13 27° ENE
CZ-4B R/B 4.3 14:54:41 34° ENE 14:54:41 34° ENE 14:59:11 10° N
Aurora 2 Rocket 4.3 14:47:35 10° SW 14:56:18 42° SSE 14:57:58 38° SE
SEDSat Delta rocket 3.5 14:51:46 10° WNW 14:57:06 79° NNE 14:58:35 51° ESE
Cosmos 1777 Rocket 4.0 14:52:21 10° SSW 14:57:34 77° WNW 15:02:46 10° N
Cosmos 1461 2.6 14:55:21 10° NNW 14:59:15 84° NNW 14:59:15 84° NNW
Atlas Centaur 2 3.6 15:03:34 10° WSW 15:04:42 13° SW 15:04:42 13° SW
Cosmos 44 3.2 15:08:22 61° N 15:08:22 61° N 15:11:57 10° NNE
Terra 3.4 15:22:58 25° NNE 15:22:58 25° NNE 15:25:12 10° N
Cosmos 1634 Rocket 3.9 15:17:13 10° N 15:23:06 66° ENE 15:23:06 66° ENE
MOS 1-B 4.4 15:30:57 67° NNE 15:30:57 67° NNE 15:36:05 10° N
SPOT 5 3.5 15:31:31 52° WSW 15:31:51 53° W 15:36:57 10° NNW
Meteor 1-21 Rocket 4.3 15:31:59 67° WSW 15:32:29 72° W 15:38:07 10° N
ERS-1 Rocket 3.9 15:38:03 40° N 15:38:03 40° N 15:41:15 10° N
Ariane H10+ 4.0 15:35:20 10° WSW 15:43:14 50° S 15:43:38 50° SSE
CZ-4B R/B 4.1 15:47:30 39° WSW 15:47:34 39° W 15:52:33 10° NNW
Palapa 6 Rocket 4.4 15:45:45 10° WNW 15:53:31 71° NNE 15:53:33 71° NNE
COSMOS 2406 4.0 15:51:13 10° NNW 15:55:24 49° NW 15:55:24 49° NW
Okean O Rocket 3.9 16:00:34 22° NW 16:00:34 22° NW 16:02:15 10° NNW
Cosmos 2082 Rocket 4.1 16:08:46 10° NW 16:12:44 23° W 16:12:44 23° W
Cosmos 2219 Rocket 4.4 20:55:39 20° NNE 20:55:39 20° NNE 20:57:14 10° NNE
ADEOS II 4.3 21:03:23 10° NNE 21:04:57 20° NNE 21:04:57 20° NNE
Orbus 21S 4.1 21:36:14 50° N 21:36:28 50° N 21:53:37 10° ENE
Lacrosse 4 Rocket 3.8 21:40:32 20° NE 21:40:32 20° NE 21:41:58 10° NE
CZ-2C R/B 4.1 21:37:31 10° NE 21:41:50 27° E 21:42:27 27° ESE
USA 234 3.5 21:40:16 10° NE 21:46:38 56° SE 21:47:04 55° SE
H-II Stage 2 4.1 21:50:12 21° ENE 21:50:12 21° ENE 21:52:09 10° ENE
Cosmos 2218 Rocket 4.5 21:49:07 46° SE 21:50:25 54° E 21:56:25 10° NNE
GPS 2-12 Rocket1 4.5 21:55:45 34° E 21:55:45 34° E 21:58:26 10° E
SeaSat 1 3.2 21:55:38 45° N 21:55:38 45° N 21:59:04 10° NNW
DELTA 2 R/B (1) 3.9 21:56:37 62° E 21:56:37 62° E 22:01:21 10° ESE
COSMOS 2428 3.1 22:01:14 52° NNW 22:01:14 52° NNW 22:05:50 10° N
SL-16 R/B 3.3 21:56:32 10° SSE 22:02:31 51° ENE 22:08:32 10° N
Cosmos 2237 Rocket 3.0 22:01:42 38° SE 22:03:01 44° ESE 22:08:20 10° NNE
Chandra Rocket (1) 2.9 22:07:31 43° E 22:07:31 43° E 22:12:23 10° ESE
Cosmos 1066 Rocket 4.5 22:01:27 10° N 22:05:32 53° NNW 22:05:32 53° NNW
Cosmos 407 Rocket 3.5 22:02:17 10° NNW 22:07:01 72° NNW 22:07:01 72° NNW
ASC 2 Rocket 4.0 22:08:33 41° NNE 22:08:33 41° NNE 22:12:47 10° E
SL-8 Rocket 3.8 22:10:34 71° WSW 22:11:00 74° W 22:17:10 10° N
Sakura Rocket 3.6 22:12:10 68° WNW 22:12:44 74° NNW 22:19:57 10° ENE
USA 281 4.0 22:08:17 10° NE 22:14:30 45° ESE 22:18:42 20° S
BREEZE-M TANK 4.0 22:05:52 10° NW 22:14:36 54° NE 22:18:31 10° ESE
CZ-3 Stage 3 4.3 22:10:05 17° NW 22:14:59 38° N 22:36:04 10° ENE
Cosmos 1975 3.7 22:16:05 42° ENE 22:16:05 42° ENE 22:19:20 10° NNE
Cosmos 1766 4.5 22:16:58 34° NE 22:16:58 34° NE 22:19:13 10° NNE
NOSS 0 Rocket 3.8 22:16:25 64° SW 22:17:16 73° WNW 22:23:29 10° NNE
Iridium 4 Rocket 3.7 22:16:24 46° S 22:18:14 84° E 22:23:55 10° N
Cosmos 1331 Rocket 3.8 22:18:10 72° S 22:18:41 85° ESE 22:23:49 10° NNE
Aurora 2 Rocket 3.1 22:24:11 38° NE 22:24:11 38° NE 22:26:36 10° E
Cosmos 1452 Rocket 3.4 22:26:35 54° S 22:27:49 87° ESE 22:33:03 10° NNE
USA 238 DEB 3.3 22:28:57 51° WSW 22:30:17 66° WNW 22:36:26 10° NNE
USA 238 3.3 22:29:02 51° WSW 22:30:23 67° WNW 22:36:31 10° NNE
BREEZE-M DEB (TANK) 3.6 22:28:52 14° NNW 22:31:40 67° NE 22:41:25 10° SE
BREEZE-M DEB (TANK) 4.0 22:31:36 31° S 22:33:42 53° ESE 22:47:42 10° NE
Intercosmos 25 Rocket 4.2 22:30:39 10° N 22:37:57 65° W 22:39:44 39° SSW
BREEZE M DEB (TANK) 4.0 22:38:34 23° NW 22:38:34 23° NW 22:40:44 10° N
ARGOS 3.1 22:32:48 10° NNE 22:38:13 88° ESE 22:41:08 28° SSW
H-2A R/B 2.9 22:35:06 10° NNW 22:38:47 29° WNW 22:38:47 29° WNW
ATLAS 5 CENTAUR R/B 2.4 22:35:35 10° NW 22:41:11 55° WSW 22:47:48 10° S
Maqsat-H 4.3 22:39:17 18° S 22:41:42 21° SSE 22:53:39 10° ESE
Cosmos 1954 Rocket 4.4 22:36:41 10° N 22:41:50 63° ENE 22:47:00 10° SSE
Cosmos 1328 Rocket 3.7 22:39:04 10° N 22:43:17 68° E 22:47:31 10° SSE
Cosmos 2366 rocket 4.4 22:42:29 36° WSW 22:43:44 40° W 22:49:31 10° NNW
Meteor 1-28 Rocket 3.8 22:45:14 36° NW 22:45:14 36° NW 22:47:25 10° NNW
Milstar 3 Cent rocket 3.8 22:39:44 11° WNW 22:44:42 25° N 22:48:40 10° NE
NOSS 2-3 (C) 3.4 22:46:05 50° WNW 22:46:13 51° WNW 22:49:41 10° NNE
NOSS 2-3 (D) 3.7 22:49:32 43° W 22:49:55 44° WNW 22:53:30 10° N
Hubble Space Telescope 2.0 22:54:40 23° S 22:54:40 23° S 22:56:46 10° SSE
Cosmos 2251 Rocket 3.6 22:48:40 10° NNW 22:53:42 49° W 22:58:43 10° S
ADEOS Rocket 3.5 22:47:55 10° N 22:55:38 69° WNW 23:02:09 14° SSW
In-Cosmos 22 4.2 22:51:56 10° NNW 22:57:09 54° W 23:02:30 10° S
SJ 16-02 2.5 22:55:01 10° N 22:59:04 44° ENE 23:03:07 10° SSE
GMS 1 Rocket B 4.3 23:00:51 32° W 23:02:23 55° SSW 23:06:31 10° SE
CZ-4 R/B 3.8 22:57:53 10° NNE 23:02:39 83° ESE 23:07:13 10° S
COSMOS 2455 3.4 23:00:56 26° WSW 23:03:36 40° WNW 23:09:10 10° N
Cosmos 1190 Rocket 4.1 22:59:44 10° NNW 23:04:44 51° WSW 23:09:44 10° S
Longmarch 3A Rocket 3.2 22:59:46 21° SW 23:05:16 46° SSE 23:08:26 10° E
Cosmos 1300 3.4 23:03:56 10° SSE 23:06:52 40° E 23:09:47 10° NNE
Sich 1 2.8 23:06:19 14° S 23:09:49 75° W 23:13:57 10° N
Cosmos 1302 Rocket 4.0 23:09:31 15° SSW 23:13:46 66° WNW 23:18:57 10° N
Cosmos 1743 Rocket 4.3 23:10:02 10° S 23:14:14 52° E 23:18:24 10° NNE
Intelsat 5-1 Rocket 4.3 22:52:11 10° WNW 23:14:25 79° SSW 23:21:18 10° ESE
OAO 2 Rocket 3.2 23:09:35 10° WNW 23:14:31 71° SW 23:19:32 10° SE
CZ-2C R/B 3.9 23:15:51 10° NNW 23:19:35 21° WNW 23:21:41 16° WSW
SL-16 R/B 2.7 23:16:36 10° S 23:22:08 60° ESE 23:27:40 10° NNE
Cosmos 2278 Rocket 4.2 23:19:04 10° N 23:24:07 32° ENE 23:29:06 10° SE
Star 63D 3.9 23:20:04 10° WNW 23:24:18 55° N 23:26:37 10° E
Cosmos 1437 Rocket 3.8 23:25:03 10° NW 23:27:51 21° W 23:29:48 14° SW
USA 234 4.5 23:24:07 10° N 23:29:15 26° NW 23:34:25 10° W
NOAA 12 4.3 23:24:21 10° NNE 23:29:38 75° ESE 23:34:53 10° S
Cosmos 1408 Rocket 3.9 23:26:23 10° SSW 23:30:23 40° W 23:34:24 10° NNW
Tiangong -0.2 23:34:55 14° WSW 23:35:29 14° SW 23:37:17 10° S
GPS 2-12 Rocket1 3.4 23:32:15 10° W 23:36:48 61° N 23:41:24 10° ENE
ACS3 Solar Sail 1.8 23:33:14 10° N 23:39:18 75° WNW 23:45:32 10° SSW
Yuri Rocket 4.3 23:41:42 10° WSW 23:44:44 19° SSW 23:47:50 10° SSE
Cosmos 1455 1.5 23:43:27 10° S 23:46:01 67° E 23:48:36 10° N
SL-16 R/B 4.0 23:42:41 10° SW 23:46:02 15° W 23:49:25 10° WNW
Cosmos 1500 Rocket 4.4 23:42:31 10° SSW 23:46:27 32° W 23:50:24 10° NNW
Cosmos 2237 Rocket 3.9 23:44:07 10° W 23:47:03 14° WNW 23:49:59 10° NW
MOS 1-B Rocket 4.2 23:41:24 10° N 23:48:19 70° WNW 23:54:18 10° SSW
IRS-1D 4.4 23:44:14 10° NNW 23:48:25 29° WNW 23:52:38 10° SW
Cosmos 371 Rocket 3.2 23:43:47 10° NNW 23:48:33 80° WSW 23:53:17 10° S
Aureole 2 4.0 23:48:43 10° NNW 23:51:55 66° WSW 23:54:50 10° S
Cosmos 1515 Rocket 4.2 23:50:39 10° NNW 23:54:33 34° W 23:58:27 10° SSW
